NIMBUS 2 DEB, 38183

Orbit data source: Space-Track

NIMBUS 2 DEB, 38183 is space debris in SSO originally from a launch on Sun, 15 May 1966 UTC launched from the Air Force Western Test Range (AFWTR). Debris objects in space refer to the collection of defunct objects orbiting the Earth. Examples of debris include non-operational satellites, rocket bodies, and fragments generated from explosions, collisions, or faulty payload assembly.

Loading next visibility...
Identifier
38183, 1966-040BB
Orbit
SSO
Country
Flag of USUS
Related business
Manufacturer
Unknown
Mission
Spacecraft
Bus & Motor
Unknown
Mass
Unknown
Launch date (UTC)
1966-05-15 (59 years ago)
Launch vehicle
Unknown
Launch site
Air Force Western Test Range (AFWTR)
Object type
Payload
Rocket body
Debris
Shape & HBR
Unknown shape, 0.1 m
Radar Cross Section
Small (<0.1 m²)

Expand to show TLE details & history
Last TLE update: 1 day ago

TLE from 1 day ago
0 NIMBUS 2 DEB
1 38183U 66040BB  25286.52449828  .00002372  00000-0  40422-2 0  9992
2 38183 100.4618 199.8869 0054502  63.5942 118.9536 13.45552829675836
Epoch: 2025-10-13T12:35Z
TLE epoch observation values (Epoch: 2025-10-13T12:35:16.651Z)
Latitude
-3.17026°
Longitude
168.15848°
Altitude
1,111.759 km
Speed
7.287 km/s
True Right ascension
01h 17m 12s
True Declination
-3° 09' 08"
Sunlit
Object was in full shadow at epoch
Visualization orbit readout
Latitude
Unknown
Longitude
Unknown
Altitude
Unknown
Speed
Unknown
Apparent Right ascension
Unknown
Apparent Declination
Unknown
Sunlit
N/A
Visualization observer readout
Local Sidereal Time
11:45:03
Azimuth
Unknown
Elevation
Unknown
Doppler factor
Unknown
Orbital elements
Apogee altitude
1,126.694 km
Perigee altitude
1,045.332 km
Semi-major axis
7,464.15 km
Eccentricity
0.00545
Inclination
100.4618°
RAAN
199.8869°
Arg. of periapsis
63.5942°
True anomaly
119.49828°
Mean anomaly
118.9536°
Eccentric anomaly
119.22612°
Mean motion
3.36568 °/min
Orbital period
106.96 mins
BSTAR
0.0040422
Loading maneuver chart data...
Computing Atmospheric mass density...
Loading historical data...
Loading historical data...
Loading historical data...
Loading historical data...
Loading historical data...
Loading historical data...
Loading historical data...

Documentation

Showing up to 5 results
|